User: anonymous   Login
Location: Alsip
(41.6689°N, 87.7387°W)
Time: 22:29:24
(UTC+00:00)
Language:

Cosmos 2181 Rocket - Orbit

View from above orbital plane
View from above orbital plane
View from above satellite
View from above satellite

Ground track
Ground track

The orbit data is extracted from the following two-line orbital elements,

1 21903U 92012B   20263.44133420 -.00000013 +00000-0 -30108-4 0  9995
2 21903 082.9396 022.0380 0043047 016.6813 047.1638 13.74510708430813
Epoch (UTC): 19 September 2020 10:35:31
Eccentricity: 0.0043047
inclination: 82.9396°
perigee height: 952 km
apogee height: 1015 km
right ascension of ascending node: 22.0380°
argument of perigee: 16.6813°
revolutions per day: 13.74510708
mean anomaly at epoch: 47.1638°
orbit number at epoch: 43081

The dashed part of the orbit path shows where the satellite is in the earth's shadow,  

DLR